This demonstration page uses our WeatherBlox Daily Observations layout. Learn more.

Left ArrowRight Arrow

40.92501, -98.34201

Hourly Observations for September 20, 2022

Temp ( °F °C ) Dew Point ( °F °C ) Humidity (%) Winds ( mph kmh ) Pressure ( in mb ) Visibility ( mi km ) Precip ( " mm )
12:53 am 00:53 Clear 76 24.4 59 15 56 56 S 9 15 29.80 1009 10 16 0.00 0.00
1:53 am 01:53 Clear 76 24.4 59 15 56 56 S 8 13 29.80 1009 10 16 0.00 0.00
2:53 am 02:53 Clear 73 22.8 59 15 61 61 S 8 13 29.80 1009 10 16 0.00 0.00
3:53 am 03:53 Clear 71 21.7 60 15.6 68 68 S 8 13 29.79 1009 10 16 0.00 0.00
4:53 am 04:53 Clear 73 22.8 60 15.6 64 64 S 9 15 29.79 1009 10 16 0.00 0.00
5:53 am 05:53 Clear 73 22.8 60 15.6 64 64 SSW 9 15 29.79 1009 10 16 0.00 0.00
6:53 am 06:53 Clear 72 22.2 60 15.6 66 66 S 10 17 29.81 1009 10 16 0.00 0.00
7:53 am 07:53 Sunny 72 22.2 60 15.6 66 66 S 9 15 29.82 1010 10 16 0.00 0.00
8:53 am 08:53 Sunny 76 24.4 60 15.6 58 58 SSW 12 19 29.82 1010 10 16 0.00 0.00
9:53 am 09:53 Sunny 81 27.2 61 16.1 51 51 SW 12 19 29.83 1010 10 16 0.00 0.00
10:53 am 10:53 Sunny 86 30 61 16.1 43 43 WSW 13 20 29.83 1010 10 16 0.00 0.00
11:53 am 11:53 Sunny 89 31.7 62 16.7 41 41 SSW 7 11 29.83 1010 10 16 0.00 0.00
12:53 pm 12:53 Sunny 93 33.9 63 17.2 37 37 SSW 6 9 29.82 1010 10 16 0.00 0.00
1:53 pm 13:53 Sunny 96 35.6 62 16.7 33 33 SSW 8 13 29.81 1010 10 16 0.00 0.00
2:53 pm 14:53 Sunny 98 36.7 63 17.2 32 32 SSW 10 17 29.79 1009 10 16 0.00 0.00
3:53 pm 15:53 Sunny 100 37.8 63 17.2 30 30 SW 9 15 29.79 1009 10 16 0.00 0.00
4:53 pm 16:53 Sunny 100 37.8 60 15.6 27 27 SW 16 26 29.79 1009 10 16 0.00 0.00
5:53 pm 17:53 Sunny 98 36.7 63 17.2 32 32 WSW 10 17 29.80 1009 10 16 0.00 0.00
6:53 pm 18:53 Sunny 92 33.3 66 18.9 43 43 WNW 5 7 29.80 1009 10 16 0.00 0.00
7:53 pm 19:53 Clear 85 29.4 57 13.9 39 39 N 10 17 29.82 1010 10 16 0.00 0.00
8:53 pm 20:53 Clear 79 26.1 53 11.7 41 41 NNE 8 13 29.85 1011 10 16 0.00 0.00
9:53 pm 21:53 Clear 74 23.3 57 13.9 56 56 N 8 13 29.87 1012 10 16 0.00 0.00
10:53 pm 22:53 Clear 72 22.2 59 15 64 64 SW 8 13 29.92 1013 10 16 0.00 0.00
11:53 pm 23:53 Clear 76 24.4 60 15.6 58 58 Calm 29.95 1014 10 16 0.00 0.00

Powered by AerisWeather